Flag for Switzerland Weather past 2 weeks in Basel, Basel-Stadt, Switzerland

Now
48 °F

Cool.


Feels Like: 46 °F
Forecast: 51 / 67 °F
Wind: 5 mph from South

Location: Bale-Mulhouse

Current Time: Apr 25, 2015 at 2:42:34 AM

Latest Report: Apr 25, 2015 at 1:00 AM


Visibility: 37 mi

Pressure: 29.92 "Hg

Humidity: 70%

Dew point: 39 °F

Location of BaselLocation

Historic Weather in Basel — Graph

°F

Basel temperature yesterday

Maximum temperature yesterday: 73 °F (at 4:00 PM)
Minimum temperature yesterday: 39 °F (at 4:00 AM)
Average temperature yesterday: 57 °F

Past Weeks' High & Low Weather Summary

 TemperatureHumidityPressure
High79 °F (Apr 15, 4:00 PM)96% (Apr 12, 6:00 AM)30.49 "Hg (Apr 12, 6:00 AM)
Low32 °F (Apr 19, 7:00 AM)19% (Apr 24, 7:00 PM)29.87 "Hg (Apr 24, 7:00 PM)
Average55 °F60%30.18 "Hg
* Reported Apr 10 1:00 AM — Apr 25 1:00 AM, Basel, Weather by CustomWeather, © 2015

Note: Actual official high and low records may vary slightly from our data, if they occured in-between our weather recording intervals... More about our weather records

Advertising

Basel weather history for previous 24 hours

 ConditionsComfort  
Time TempWeatherWind HumidityBarometerVisibility
1:00 AM
Sat, Apr 25
48 °FCool.5 mph70%29.92 "Hg37 mi
12:00 AM49 °FPassing clouds.1 mph67%29.92 "Hg25 mi
10:00 PM
Fri, Apr 24
56 °FPassing clouds.3 mph51%29.90 "Hg25 mi
9:00 PM58 °FPassing clouds.5 mph42%29.90 "Hg25 mi
8:00 PM67 °FPartly sunny.5 mph26%29.87 "Hg25 mi
7:00 PM72 °FMild.5 mph19%29.87 "Hg34 mi
6:00 PM73 °FOvercast.6 mph24%29.87 "Hg22 mi
5:00 PM73 °FPassing clouds.8 mph25%29.88 "Hg22 mi
4:00 PM73 °FPassing clouds.5 mph25%29.90 "Hg22 mi
3:00 PM71 °FPassing clouds.7 mph33%29.92 "Hg22 mi
2:00 PM69 °FSunny.8 mph32%29.94 "Hg22 mi
1:00 PM68 °FSunny.3 mph34%29.96 "Hg22 mi
12:00 PM65 °FSunny.2 mph35%29.98 "Hg22 mi
11:00 AM61 °FSunny.2 mph41%30.01 "Hg22 mi
10:00 AM57 °FSunny.5 mph49%30.02 "Hg22 mi
9:00 AM52 °FSunny.8 mph62%30.03 "Hg22 mi
8:00 AM47 °FSunny.5 mph75%30.03 "Hg22 mi
7:00 AM42 °FSunny.6 mph81%30.03 "Hg16 mi
6:00 AM42 °FClear.5 mph78%30.02 "Hg16 mi
4:00 AM39 °FChilly.3 mph86%30.03 "Hg17 mi
3:00 AM40 °FQuite cool.1 mph87%30.03 "Hg22 mi
2:00 AM43 °FQuite cool.1 mph81%30.03 "Hg13 mi
Weather by CustomWeather, © 2015

See weather overviewHow to use our weather pages